Regional Weather Roundup
Issued by NWS Midland/Odessa, TX

Home | Current Version | Previous Version | Text Only | Print | Product List | Glossary On
Versions: 1 2 3 4 5 6 7 8 9 10 11 12 13 14 15 16 17 18 19 20 21 22 23 24 25 26 27 28 29 30 31 32 33 34 35 36 37 38 39 40 41 42 43 44 45 46 47 48 49 50
000
ASUS44 KMAF 180210
RWRMAF
MIDLAND AREA WEATHER ROUNDUP
NATIONAL WEATHER SERVICE MIDLAND TX
800 PM CST WED DEC 17 2014

...IN SOUTHWEST TEXAS AND SOUTHEAST NEW MEXICO...

CITY           SKY/WX    TMP DP  RH WIND       PRES   REMARKS
ALPINE         CLEAR     44  26  51 S3        30.15R
ANDREWS        FAIR      53  29  39 W9        30.02S
ARTESIA        CLEAR     54  32  43 W16G23    30.02S
BIG SPRING     CLEAR     54  43  68 S8        30.05R
CARLSBAD       CLEAR     53  30  41 W10       30.01R
DRYDEN           N/A     46  42  86 NE6       30.06R
FORT STOCKTON  CLEAR     50  36  58 S6        30.05R
GUAD PASS      NOT AVBL
HOBBS          CLEAR     48  28  46 SW8       30.03R
MARFA          CLEAR     39  21  48 CALM      30.12R
MIDLAND AIRPK  CLEAR     58  29  33 SW3       30.03R
MIDLAND INTL   CLEAR     54  29  38 W9        30.02R
ODESSA         CLEAR     57  28  33 W9        30.03R
PECOS          CLEAR     49  28  44 CALM      30.04R
PRESIDIO       FAIR      56  33  41 N6        30.03R
SEMINOLE       CLEAR     49  29  45 W8        30.02R
SNYDER         CLEAR     44  41  90 E9        30.02S WCI  38
WINK           CLEAR     54  26  34 SW7       30.02R
$$
...OTHER STATIONS IN TEXAS...

CITY           SKY/WX    TMP DP  RH WIND       PRES   REMARKS
ABILENE        CLOUDY    49  43  80 SE10      30.07R
AMARILLO       FOG       35  35 100 S21G26    29.99R VSB 1/4 WCI  24
AUSTIN         CLOUDY    52  51  97 N7        30.08R
BROWNSVILLE    CLOUDY    71  67  87 SE15      30.00S
CORPUS CHRISTI CLOUDY    69  65  86 SE8       30.03R
DALLAS FTW     LGT RAIN  42  41  96 NE8       30.15R FOG     WCI  37
DEL RIO        CLOUDY    54  49  83 CALM      30.08R
EL PASO        PTCLDY    52  35  52 NW13      30.09R
HOUSTON INT    CLOUDY    59  53  80 SE12      30.10S
LUBBOCK        CLOUDY    46  44  93 SE13      29.99R
SAN ANGELO     PTCLDY    52  49  89 S8        30.05R
SAN ANTONIO    CLOUDY    55  52  89 N7        30.07R
WACO           CLOUDY    48  45  89 NE6       30.12S
WICHITA FALLS  NOT AVBL
$$
...OTHER LOCATIONS IN NEW MEXICO...

CITY           SKY/WX    TMP DP  RH WIND       PRES   REMARKS
ALAMAGORDO     MOCLDY    45  30  57 S7        30.08R
ALBUQUERQUE    CLOUDY    38  36  92 SE7       30.05R WCI  33
CANNON AFB     PTCLDY    44  28  53 W10       29.98R WCI  39
CLOVIS         PTCLDY    39  27  60 W8        29.97R WCI  34
HOLLOMAN AFB   PTCLDY    48  30  49 SW7       30.07R
ROSWELL        CLOUDY    53  31  42 SW9       30.00R
RUIDOSO        PTCLDY    36  28  75 SW14      30.08R WCI  27
SANTA FE       FOG       33  32  96 SW8       30.02R VSB 1/4 WCI  26
TRUTH OR CONSE CLEAR     43  25  49 W6        30.06R WCI  39
TUCUMCARI      CLEAR     48  30  49 W13       29.92R
$$



USA.gov is the U.S. government's official web portal to all federal, state and local government web resources and services.